Weather Roundup
Issued by NWS

Home | Current Version | Previous Version | Text Only | Print | Product List | Glossary On
Versions: 1 2 3 4 5 6 7 8 9 10 11 12 13 14 15 16 17 18 19 20 21 22 23 24 25 26 27 28 29 30 31 32 33 34 35 36 37 38 39 40 41 42 43 44 45 46 47 48 49 50
000
NZUS93 KARX 202259
HRRWXR

CURRENT HOURLY OBSERVATIONS ACROSS
MUCH OF THE UPPER MISSISSIPPI VALLEY
NATIONAL WEATHER SERVICE LA CROSSE WI
600 PM CDT WED SEP 20 2017


...SOUTHEAST MINNESOTA...


CITY           SKY/WX    TMP DP  RH WIND       PRES   REMARKS
ROCHESTER      SUNNY     73  55  53 NW8       29.86R
ROCHESTER/MAYO FAIR      74  52  45 NW8       29.86R
WINONA         SUNNY     73  59  60 N6        29.84R
AUSTIN           N/A     73  55  53 NW7       29.86R
ALBERT LEA     SUNNY     75  54  46 N6        29.87R
DODGE CENTER   SUNNY     73  52  46 NW8       29.87R
PRESTON        SUNNY     71  58  61 N8        29.87R
OWATONNA       SUNNY     72  54  53 NW6       29.87S
FARIBAULT      SUNNY     72  52  49 CALM      29.87S
$$

...ELSEWHERE IN MINNESOTA...


CITY           SKY/WX    TMP DP  RH WIND       PRES   REMARKS
MINNEAPOLIS    SUNNY     73  50  44 W7        29.85S
INTNL FALLS    SUNNY     64  44  48 SW8       29.79R
DULUTH         MOSUNNY   67  48  50 W10       29.83R
RED WING       SUNNY     75  52  43 NW6       29.83S
REDWOOD FALLS  SUNNY     72  45  37 CALM      29.85S
MANKATO        SUNNY     71  49  45 NW5       29.87S
WORTHINGTON    SUNNY     72  41  32 CALM      29.88S
FAIRMONT       SUNNY     73  47  39 MISG      29.88R
$$

...SOUTHWEST WISCONSIN...


CITY           SKY/WX    TMP DP  RH WIND       PRES   REMARKS
LA CROSSE      PTSUNNY   79  64  61 NW14        N/A
PRAIRIE DU CHI CLOUDY    85  68  57 CALM      29.77S
BOSCOBEL       MOSUNNY   86  72  62 CALM      29.78S HX  92
LONE ROCK      PTSUNNY   83  76  79 CALM      29.79R HX  91
PLATTEVILLE    MOSUNNY   86  71  61 S8        29.81S HX  91
FORT MC COY    CLOUDY    74  72  93 CALM      29.82R
MAUSTON-NEW LI CLOUDY    82  73  73 CALM      29.79R
VIROQUA        FAIR      78  73  84 CALM      29.82R
WIS DELLS      NOT AVBL
$$

...ELSEWHERE IN WISCONSIN...


CITY           SKY/WX    TMP DP  RH WIND       PRES   REMARKS
MILWAUKEE      PTCLDY    83  69  62 S14       29.81F
MADISON        MOCLDY    87  70  56 S5        29.80R HX  92
GREEN BAY      CLOUDY    77  70  79 SE9       29.81F
EAU CLAIRE     SUNNY     74  59  59 W5        29.83R
BLACK RVR FLS  FAIR      79  64  59 NW10      29.82R
MEDFORD        MOSUNNY   71  65  82 NW8       29.86R
WAUSAU         LGT RAIN  74  71  91 S3        29.82R
WIS RAPIDS     CLOUDY    70  69  97 S5        29.83F
MARSHFIELD     LGT RAIN  73  67  81 SW3       29.83R
RICE LAKE      SUNNY     74  54  49 W6        29.86R
$$

...NORTHEAST IOWA...


CITY           SKY/WX    TMP DP  RH WIND       PRES   REMARKS
WATERLOO       CLOUDY    74  71  91 NW3       29.81R
DUBUQUE        TSTM      78  72  81 W14       29.83R
DECORAH        CLOUDY    75  66  73 N10G16    29.82R
MASON CITY     SUNNY     75  53  46 NW8       29.87R
CHARLES CITY   SUNNY     77  61  57 N7G14     29.85R
OELWEIN        LGT RAIN  77  75  94 NW9       29.82R
$$

...ELSEWHERE IN IOWA...


CITY           SKY/WX    TMP DP  RH WIND       PRES   REMARKS
DES MOINES     PTSUNNY   84  65  52 N6        29.81R
IOWA CITY      MOSUNNY   87  71  58 W8        29.81R HX  93
FORT DODGE     SUNNY     77  54  44 N6        29.86R
MARSHALLTOWN   CLOUDY    80  73  79 NW5       29.81R
CEDAR RAPIDS   CLOUDY    85  70  60 SW12      29.79S
$$

...NORTHERN ILLINOIS...


CITY           SKY/WX    TMP DP  RH WIND       PRES   REMARKS
CHICAGO-OHARE  CLEAR     90  65  43 S23       29.85R HX  92
CHICAGO-MIDWAY PTCLDY    91  66  43 S15G25    29.86R HX  93
MOLINE         SUNNY     91  68  46 S12       29.79R HX  95
ROCKFORD       PTCLDY    88  66  48 S13       29.82R HX  90
PEORIA         SUNNY     91  68  46 S9        29.83S HX  95
$$

NOTE: "FAIR" INDICATES FEW OR NO CLOUDS BELOW 12,000 FEET WITH NO
SIGNIFICANT WEATHER AND/OR OBSTRUCTIONS TO VISIBILITY. WIND
SPEEDS ARE IN MILES-PER-HOUR.




USA.gov is the U.S. government's official web portal to all federal, state and local government web resources and services.